OPS 4682 DEB, 38387

Orbit data source: Space-Track

OPS 4682 DEB, 38387 is space debris in LEO originally from a launch on Sat, 03 Apr 1965 UTC launched from the Air Force Western Test Range (AFWTR). Debris objects in space refer to the collection of defunct objects orbiting the Earth. Examples of debris include non-operational satellites, rocket bodies, and fragments generated from explosions, collisions, or faulty payload assembly.

Loading next visibility...
Identifier
38387, 1965-027CQ
Orbit
LEO
Country
Flag of USUS
Related business
Manufacturer
Unknown
Mission
Spacecraft
Bus & Motor
Unknown
Mass
Unknown
Launch date (UTC)
1965-04-03 (61 years ago)
Launch vehicle
Unknown
Launch site
Air Force Western Test Range (AFWTR)
Object type
Payload
Rocket body
Debris
Shape & HBR
Unknown shape, 0.1 m
Radar Cross Section
Small (<0.1 m²)

Expand to show TLE details & history
Last TLE update: 9 hours ago

TLE from 9 hours ago
0 OPS 4682 DEB
1 38387U 65027CQ  26100.48831370  .00000573  00000-0  19755-2 0  9996
2 38387  90.2486   3.8512 0022712 286.8699  72.9930 12.96421589595074
Epoch: 2026-04-10T11:43Z
TLE epoch observation values (Epoch: 2026-04-10T11:43:10.303Z)
Latitude
-0.00009°
Longitude
-10.66298°
Altitude
1,273.968 km
Speed
7.221 km/s
True Right ascension
00h 15m 24s
True Declination
0° 00' 00"
Sunlit
Object was in daylight at epoch
Visualization orbit readout
Latitude
Unknown
Longitude
Unknown
Altitude
Unknown
Speed
Unknown
Apparent Right ascension
Unknown
Apparent Declination
Unknown
Sunlit
N/A
Visualization observer readout
Local Sidereal Time
02:30:30
Azimuth
Unknown
Elevation
Unknown
Doppler factor
Unknown
Orbital elements
Apogee altitude
1,290.649 km
Perigee altitude
1,255.894 km
Semi-major axis
7,651.409 km
Eccentricity
0.00227
Inclination
90.2486°
RAAN
3.8512°
Arg. of periapsis
286.8699°
True anomaly
73.24208°
Mean anomaly
72.993°
Eccentric anomaly
73.11752°
Mean motion
3.24288 °/min
Orbital period
111.01 mins
BSTAR
0.0019755
Loading maneuver chart data...
Computing Atmospheric mass density...
Loading historical data...
Loading historical data...
Loading historical data...
Loading historical data...
Loading historical data...
Loading historical data...
Loading historical data...

Documentation

Showing up to 5 results
|